S51FO-6 Weather Reports


time (UTC)temp
C
wind
direction
speed
KPH
gust
KPH
rain 1hr
cm
rain 24hr
cm
rain mn
cm
humidity
%
barometer
mb
20260503034948 -6 0.0 0.0 0.00 0.00 0.00 81
20260503033949 -6 0.0 0.0 0.00 0.00 0.00 81
20260503031947 -6 0.0 0.0 0.00 0.00 0.00 81
20260503024947 -6 0.0 0.0 0.00 0.00 0.00 81
20260503022955 -6 0.0 0.0 0.00 0.00 0.00 81
20260503021946 -6 0.0 0.0 0.00 0.00 0.00 81
20260503020946 -6 0.0 0.0 0.00 0.00 0.00 81
20260503015946 -6 0.0 0.0 0.00 0.00 0.00 81
20260503014946 -6 0.0 0.0 0.00 0.00 0.00 81
20260503013946 -6 0.0 0.0 0.00 0.00 0.00 81
20260503011946 -6 0.0 0.0 0.00 0.00 0.00 82
20260503004946 -5 0.0 0.0 0.00 0.00 0.00 83
20260503002947 -5 0.0 0.0 0.00 0.00 0.00 82
20260503001950 -5 0.0 0.0 0.00 0.00 0.00 83
20260503000946 -5 0.0 0.0 0.00 0.00 0.00 83
20260502233948 -5 0.0 0.0 0.00 0.00 0.00 83
20260502231957 -4 0.0 0.0 0.00 0.00 0.00 83
20260502230946 -4 0.0 0.0 0.00 0.00 0.00 83
20260502225946 -4 0.0 0.0 0.00 0.00 0.00 83
20260502223948 -3 0.0 0.0 0.00 0.00 0.00 83
20260502222946 -3 0.0 0.0 0.00 0.00 0.00 83
20260502221948 -3 0.0 0.0 0.00 0.00 0.00 83
20260502220959 -3 0.0 0.0 0.00 0.00 0.00 83
20260502215946 -3 0.0 0.0 0.00 0.00 0.00 83
20260502213946 -3 0.0 0.0 0.00 0.00 0.00 82
20260502211946 -2 0.0 0.0 0.00 0.00 0.00 82
20260502210946 -2 0.0 0.0 0.00 0.00 0.00 82
20260502204948 -2 0.0 0.0 0.00 0.00 0.00 82
20260502203946 -2 0.0 0.0 0.00 0.00 0.00 81
20260502202946 -2 0.0 0.0 0.00 0.00 0.00 81
20260502195956 -1 0.0 0.0 0.00 0.00 0.00 80
20260502194957 -1 0.0 0.0 0.00 0.00 0.00 80
20260502190947 0 0.0 0.0 0.00 0.00 0.00 77
20260502185947 0 0.0 0.0 0.00 0.00 0.00 77
20260502184948 1 0.0 0.0 0.00 0.00 0.00 77
20260502183949 1 0.0 0.0 0.00 0.00 0.00 75
20260502182944 2 0.0 0.0 0.00 0.00 0.00 73
20260502181948 3 0.0 0.0 0.00 0.00 0.00 72
20260502163946 13 0.0 0.0 0.00 0.00 0.00 39
20260502160944 16 0.0 0.0 0.00 0.00 0.00 32
20260502121947 14 0.0 0.0 0.00 0.00 0.00 32
20260502120946 16 0.0 0.0 0.00 0.00 0.00 28
20260502114947 16 0.0 0.0 0.00 0.00 0.00 30
20260502113946 16 0.0 0.0 0.00 0.00 0.00 26
20260502105951 16 0.0 0.0 0.00 0.00 0.00 28
20260502104948 15 0.0 0.0 0.00 0.00 0.00 27
20260502101946 15 0.0 0.0 0.00 0.00 0.00 30
20260502100949 14 0.0 0.0 0.00 0.00 0.00 29
20260502090956 15 0.0 0.0 0.00 0.00 0.00 30
20260502070944 11 0.0 0.0 0.00 0.00 0.00 50
20260502065944 8 0.0 0.0 0.00 0.00 0.00 64
20260502064944 7 0.0 0.0 0.00 0.00 0.00 68
20260502063944 5 0.0 0.0 0.00 0.00 0.00 76
20260502062944 3 0.0 0.0 0.00 0.00 0.00 85
20260502061944 1 0.0 0.0 0.00 0.00 0.00 86
20260502060944 -1 0.0 0.0 0.00 0.00 0.00 85
20260502055944 -2 0.0 0.0 0.00 0.00 0.00 84
20260502054944 -3 0.0 0.0 0.00 0.00 0.00 84
20260502053944 -4 0.0 0.0 0.00 0.00 0.00 83
20260502052944 -5 0.0 0.0 0.00 0.00 0.00 83
20260502051944 -5 0.0 0.0 0.00 0.00 0.00 83
20260502050944 -6 0.0 0.0 0.00 0.00 0.00 83
20260502044944 -6 0.0 0.0 0.00 0.00 0.00 82
20260502043947 -6 0.0 0.0 0.00 0.00 0.00 82
20260502041958 -7 0.0 0.0 0.00 0.00 0.00 81
20260502040957 -7 0.0 0.0 0.00 0.00 0.00 81
20260502035946 -7 0.0 0.0 0.00 0.00 0.00 81